Torna al catalogo

TITAN 3C TRANSTAGE DEB

AttivoMEO
NORAD 43454·DEBRIS·🇺🇸 United States

Lanciato Feb 9, 1969 da Cape Canaveral Space Force Station

Loading…

Prossimi Passaggi (prossime 24 ore)

TLE

AggiornatoSource: Space-Track

Epoca: Sep 13, 2026, 17:31 UTC

1 43454U 69013M   26256.73028570 -.00000164  00000-0  00000-0 0  9994
2 43454   1.3231 115.7046 0543501 358.4542   2.1896  1.02845854 31541

Traccia TITAN 3C TRANSTAGE DEB in tempo reale con AllMySat

Download on the App Store